[[{"header":{"parameterUnit":"m.s-1","parameterCategory":1,"la1":30.2991,"la2":30.254,"lo1":-89.0895,"lo2":-89.0444,"dy":0.0017,"dx":0.0017,"nx":28,"ny":28,"refTime":"2024-04-14T03:00:00:Z","depth":0,"parameterNumber":2,"parameterNumberName":"U-component_of_WINDS"},"data":[0,0,0,0,0,0,0,0,0,0,0,0,0,0,0,0,0,0,0,0,0,0,0,0,0,0,0,0,0,0,0,0,0,0,0,0,0,0,0,0,0,0,0,0,0,0,0,0,0,0,0,0,0,0,0,0,0,0,-2.0437,-2.0437,0,-2.0437,-2.0437,-2.0437,-2.0396,-2.0395,-2.0394,-2.0393,-2.0393,-2.0394,-2.0395,0,0,0,0,0,0,0,0,0,0,0,0,0,-2.0401,-2.0402,-2.0437,-2.0437,-2.0437,-2.0437,-2.0437,-2.0437,-2.0396,-2.0395,-2.0394,-2.0393,-2.0393,-2.0394,-2.0395,0,0,0,0,0,0,0,0,0,0,0,0,0,-2.041,-2.0402,-2.0437,-2.0417,-2.0415,-2.0437,-2.0437,-2.0437,-2.0397,-2.0395,-2.0393,-2.0392,-2.0392,-2.0394,-2.0395,-2.0438,0,0,-2.04,-2.0401,0,0,0,0,0,0,0,0,-2.041,-2.0412,-2.042,-2.0418,-2.0416,-2.0415,-2.0425,-2.0438,-2.0397,-2.0404,-2.0393,-2.0391,-2.0402,-2.0402,-2.0406,-2.0438,-2.0438,-2.04,-2.0401,-2.0402,-2.0402,0,0,0,0,0,0,0,-2.0409,-2.0412,-2.0437,-2.042,-2.0418,-2.0408,-2.0407,-2.0427,-2.0412,-2.0403,-2.04,-2.0401,-2.04,-2.0405,-2.0406,-2.0438,-2.04,-2.0402,-2.0402,-2.0403,-2.0503,-2.0505,0,0,0,0,0,0,-2.0412,-2.0411,-2.0437,-2.0437,-2.0409,-2.041,-2.0409,-2.0417,-2.0411,-2.0409,-2.0402,-2.0399,-2.0403,-2.0404,-2.0406,-2.0454,-2.0402,-2.0403,-2.0404,-2.0501,-2.0503,-2.0505,0,0,0,0,0,0,-2.0411,-2.0414,-2.0437,-2.0423,-2.0426,-2.0412,-2.0421,-2.0418,-2.0422,-2.0411,-2.0408,-2.0409,-2.0402,-2.0403,-2.043,-2.0453,-2.0404,-2.0405,-2.0499,-2.0502,-2.0504,-2.055,0,0,0,0,0,0,-2.041,-2.0414,-2.043,-2.0424,-2.0427,-2.0461,-2.0423,-2.0419,-2.0425,-2.0421,-2.0417,-2.0414,-2.0401,-2.0428,-2.0431,-2.0454,-2.0406,-2.0497,-2.0501,-2.0504,-2.0547,-2.0554,-2.0561,0,0,0,0,0,-2.0409,-2.0443,-2.0431,-2.0434,-2.0446,-2.0463,-2.0464,-2.0447,-2.0427,-2.0442,-2.0435,-2.0414,-2.0451,-2.0431,-2.0434,-2.0458,-2.0496,-2.05,-2.0503,-2.0544,-2.0553,-2.0561,0,0,0,0,0,0,-2.0451,-2.0442,-2.0428,-2.0462,-2.0463,-2.0456,-2.0475,-2.0458,-2.0465,-2.0461,-2.044,-2.044,-2.0469,-2.0467,-2.0445,-2.0498,-2.0469,-2.0474,-2.0499,-2.0507,-2.0514,-2.0513,-2.0408,0,0,0,0,0,-2.0465,-2.048,-2.047,-2.0501,-2.0502,-2.0489,-2.0495,-2.0483,-2.0483,-2.0484,-2.0479,-2.048,-2.0492,-2.05,-2.051,-2.0547,-2.0545,-2.0565,-2.0572,-2.0578,-2.0582,-2.06,-2.0609,-2.0518,-2.0518,-2.0518,0,0,-2.0492,-2.0489,-2.0499,-2.0509,-2.0509,-2.0524,-2.0489,-2.0507,-2.0518,-2.0487,-2.051,-2.0507,-2.0508,-2.0539,-2.0553,-2.0538,-2.0607,-2.0583,-2.0588,-2.0588,-2.0605,-2.0614,-2.0622,-2.0521,-2.052,-2.052,0,0,-2.055,-2.0549,-2.0574,-2.0575,-2.0575,-2.0566,-2.0572,-2.0567,-2.0564,-2.0588,-2.0564,-2.0578,-2.0598,-2.0599,-2.0602,-2.0662,-2.0642,-2.0666,-2.0702,-2.072,-2.0727,-2.0733,-2.0753,-2.0761,-2.067,-2.067,-2.067,0,-2.0584,-2.0606,-2.0589,-2.0608,-2.0613,-2.0586,-2.061,-2.0612,-2.0616,-2.0619,-2.0603,-2.0628,-2.0627,-2.0658,-2.0672,-2.0676,-2.0682,-2.0665,-2.0728,-2.0734,-2.0739,-2.0758,-2.0765,-2.0673,-2.0673,-2.0672,-2.0672,0,-2.0647,-2.0663,-2.0683,-2.0687,-2.0694,-2.0716,-2.0702,-2.0712,-2.0699,-2.0692,-2.0717,-2.0714,-2.0723,-2.073,-2.0718,-2.076,-2.075,-2.0731,-2.0701,-2.0751,-2.0768,-2.0775,-2.0677,-2.0676,-2.0675,-2.0674,0,0,-2.0729,-2.0724,-2.0732,-2.0733,-2.0732,-2.0744,-2.0765,-2.0774,-2.0782,-2.0786,-2.0802,-2.0821,-2.0804,-2.0807,-2.0795,-2.0812,-2.0857,-2.0791,-2.079,-2.0802,-2.0902,-2.0915,-2.0923,-2.0846,-2.0847,-2.0848,-2.0902,0,-2.0783,-2.0818,-2.0804,-2.084,-2.0854,-2.0829,-2.0848,-2.0849,-2.0843,-2.0854,-2.0848,-2.0861,-2.0838,-2.084,-2.0855,-2.0849,-2.0877,-2.0845,-2.086,-2.086,-2.0858,-2.0933,-2.0946,-2.0996,-2.0908,-2.0909,-2.091,0,-2.0851,-2.0857,-2.0895,-2.0891,-2.0897,-2.0913,-2.092,-2.0932,-2.0933,-2.0928,-2.0933,-2.0917,-2.0937,-2.0909,-2.0936,-2.0914,-2.092,-2.0918,-2.092,-2.0919,-2.0887,-2.0932,-2.1012,-2.1019,-2.0921,-2.092,-2.0919,0,-2.0905,-2.0924,-2.0948,-2.0951,-2.0948,-2.096,-2.0959,-2.0959,-2.0965,-2.0972,-2.0975,-2.0984,-2.0989,-2.0996,-2.0983,-2.0964,-2.1012,-2.0983,-2.1007,-2.1007,-2.1016,-2.1015,-2.1097,-2.1023,-2.1023,-2.1023,-2.1023,0,-2.0966,-2.0989,-2.0973,-2.0987,-2.1013,-2.0997,-2.1023,-2.102,-2.102,-2.1034,-2.1014,-2.1027,-2.101,-2.1022,-2.1013,-2.1036,-2.1039,-2.1034,-2.1031,-2.1035,-2.1035,-2.1037,-2.1032,-2.1025,-2.1025,-2.1024,-2.1024,0,-2.103,-2.102,-2.1044,-2.104,-2.1039,-2.1058,-2.1054,-2.1068,-2.1062,-2.1079,-2.1083,-2.1072,-2.1085,-2.1074,-2.1086,-2.108,-2.111,-2.1103,-2.111,-2.1107,-2.1131,-2.1128,-2.1215,-2.1225,-2.1147,-2.1148,-2.1148,0,-2.1068,-2.1086,-2.1083,-2.1091,-2.1091,-2.1105,-2.1111,-2.1096,-2.1104,-2.1107,-2.112,-2.1132,-2.1139,-2.1161,-2.1155,-2.1164,-2.1156,-2.1186,-2.1157,-2.116,-2.1154,-2.1153,-2.1154,-2.1191,-2.1192,-2.1192,-2.1193,0,-2.1137,-2.1131,-2.1141,-2.115,-2.1158,-2.1164,-2.1168,-2.1176,-2.1161,-2.117,-2.1183,-2.119,-2.1203,-2.1214,-2.1221,-2.122,-2.1204,-2.1203,-2.1208,-2.1211,-2.1213,-2.1211,-2.1123,-2.12,-2.1199,-2.1199,-2.1198,-2.1198,-2.1188,-2.1202,-2.1202,-2.1214,-2.1216,-2.1221,-2.1233,-2.1229,-2.1239,-2.1248,-2.124,-2.1255,-2.1256,-2.1265,-2.1266,-2.1278,-2.1265,-2.1274,-2.1276,-2.1278,-2.1281,-2.1214,-2.128,-2.1279,-2.1279,-2.1279,-2.1279,0,-2.1254,-2.1254,-2.1265,-2.1271,-2.1281,-2.1266,-2.127,-2.1278,-2.1292,-2.1295,-2.1303,-2.1318,-2.1329,-2.1324,-2.1334,-2.1344,-2.1337,-2.1347,-2.1345,-2.1345,-2.1292,-2.1285,-2.1353,-2.1353,-2.1353,-2.1353,-2.1353,-2.1353,-2.129,-2.1312,-2.1307,-2.1331,-2.133,-2.1345,-2.1348,-2.1353,-2.1354,-2.1372,-2.1381,-2.1378,-2.1377,-2.1387,-2.1396,-2.1394,-2.1398,-2.1411,-2.1406,-2.1356,-2.1349,-2.1342,-2.1335,-2.1412,-2.1412,-2.1457,-2.1458,-2.1458]},{"header":{"parameterUnit":"m.s-1","parameterCategory":1,"la1":30.2991,"la2":30.254,"lo1":-89.0895,"lo2":-89.0444,"dy":0.0017,"dx":0.0017,"nx":28,"ny":28,"refTime":"2024-04-14T03:00:00:Z","depth":0,"parameterNumber":3,"parameterNumberName":"V-component_of_WINDS"},"data":[0,0,0,0,0,0,0,0,0,0,0,0,0,0,0,0,0,0,0,0,0,0,0,0,0,0,0,0,0,0,0,0,0,0,0,0,0,0,0,0,0,0,0,0,0,0,0,0,0,0,0,0,0,0,0,0,0,0,2.8843,2.8843,0,2.882,2.882,2.8819,2.8752,2.875,2.8749,2.8748,2.8725,2.8726,2.8727,0,0,0,0,0,0,0,0,0,0,0,0,0,2.8833,2.8833,2.8843,2.8843,2.8843,2.882,2.882,2.8819,2.8752,2.875,2.8749,2.8747,2.8725,2.8726,2.8727,0,0,0,0,0,0,0,0,0,0,0,0,0,2.8826,2.8833,2.8843,2.8807,2.8803,2.882,2.882,2.8819,2.8753,2.875,2.8748,2.8746,2.8724,2.8726,2.8727,2.8778,0,0,2.873,2.8731,0,0,0,0,0,0,0,0,2.8827,2.8827,2.8812,2.8809,2.8805,2.8786,2.8807,2.8805,2.8753,2.8772,2.8748,2.8745,2.8747,2.8747,2.8747,2.8777,2.8776,2.873,2.8731,2.8732,2.8732,0,0,0,0,0,0,0,2.8827,2.8827,2.8834,2.8812,2.8808,2.8792,2.8789,2.8807,2.8772,2.877,2.8765,2.8763,2.8745,2.8746,2.8746,2.8776,2.873,2.8731,2.8732,2.8733,2.8847,2.8849,0,0,0,0,0,0,2.8833,2.8828,2.8835,2.8833,2.8811,2.8794,2.879,2.8795,2.8772,2.8766,2.8765,2.876,2.8745,2.8745,2.8745,2.8803,2.8732,2.8733,2.8733,2.8845,2.8848,2.885,0,0,0,0,0,0,2.8833,2.8834,2.8836,2.8829,2.8828,2.8796,2.8802,2.8795,2.8796,2.8768,2.8762,2.8772,2.8743,2.8743,2.877,2.8802,2.8733,2.8734,2.8842,2.8846,2.8849,2.8921,0,0,0,0,0,0,2.8833,2.8834,2.8853,2.883,2.8829,2.8861,2.8804,2.8797,2.8798,2.8792,2.8773,2.8768,2.8742,2.8769,2.8771,2.8802,2.8735,2.8839,2.8844,2.8848,2.8916,2.8926,2.8936,0,0,0,0,0,2.8832,2.8874,2.8854,2.8855,2.8851,2.8863,2.8862,2.8831,2.8801,2.882,2.8802,2.8769,2.8798,2.8772,2.8774,2.8806,2.8837,2.8842,2.8847,2.8911,2.8924,2.8936,0,0,0,0,0,0,2.8901,2.887,2.8848,2.8883,2.8876,2.8852,2.8874,2.8846,2.8847,2.8841,2.8802,2.8799,2.8831,2.8821,2.8793,2.8855,2.8812,2.8818,2.886,2.8872,2.8882,2.8883,2.8736,0,0,0,0,0,2.8921,2.8932,2.8905,2.8939,2.8936,2.8906,2.891,2.8886,2.8878,2.8874,2.8858,2.8852,2.8859,2.8865,2.8871,2.8914,2.8909,2.8937,2.8947,2.8956,2.8961,2.8984,2.8996,2.8868,2.8868,2.8867,0,0,2.896,2.8945,2.8955,2.8952,2.8944,2.8957,2.8904,2.892,2.893,2.8877,2.8901,2.889,2.888,2.8915,2.893,2.8908,2.8996,2.8962,2.8969,2.897,2.899,2.9003,2.9013,2.8871,2.8871,2.887,0,0,2.904,2.9029,2.9056,2.905,2.9038,2.9018,2.9025,2.9004,2.8994,2.9018,2.8979,2.8991,2.9005,2.8999,2.8998,2.9078,2.9047,2.9081,2.9133,2.9156,2.9166,2.9175,2.9203,2.9213,2.9087,2.9087,2.9087,0,2.9091,2.9109,2.9074,2.9093,2.9094,2.9047,2.9074,2.9069,2.9061,2.9062,2.9038,2.9055,2.9045,2.9079,2.9098,2.9099,2.9106,2.9082,2.9167,2.9176,2.9183,2.921,2.922,2.9091,2.909,2.909,2.909,0,2.9172,2.9185,2.9209,2.9201,2.9204,2.9228,2.9198,2.9205,2.9182,2.9165,2.919,2.9177,2.9179,2.9186,2.9163,2.9217,2.9203,2.9174,2.913,2.92,2.9224,2.9234,2.9097,2.9095,2.9094,2.9093,0,0,2.9293,2.9266,2.9276,2.9272,2.9256,2.9266,2.9288,2.929,2.9297,2.9293,2.9311,2.9324,2.9297,2.9296,2.9273,2.9293,2.9357,2.9261,2.926,2.9279,2.9415,2.9437,2.9449,2.9337,2.9339,2.934,2.9416,0,2.9367,2.9402,2.9373,2.9413,2.9425,2.9382,2.9401,2.9394,2.9379,2.9388,2.9371,2.9381,2.9345,2.9344,2.9362,2.9345,2.9383,2.9339,2.9353,2.9354,2.9356,2.9462,2.9485,2.9557,2.9425,2.9427,2.9428,0,2.9458,2.9458,2.95,2.9483,2.9487,2.9504,2.9504,2.9513,2.9505,2.9492,2.9492,2.9464,2.9485,2.9443,2.9472,2.9442,2.9447,2.944,2.9442,2.9441,2.9394,2.9464,2.9579,2.959,2.9442,2.9441,2.944,0,2.9542,2.9552,2.9579,2.9577,2.9557,2.9571,2.9563,2.9553,2.9556,2.9556,2.9558,2.9561,2.9563,2.9567,2.954,2.9512,2.9572,2.9528,2.9563,2.9564,2.9577,2.9576,2.9694,2.9581,2.9581,2.9581,2.958,0,2.9628,2.9655,2.9616,2.9632,2.9662,2.9629,2.9659,2.9647,2.9638,2.9652,2.9615,2.9629,2.9594,2.9604,2.9584,2.9611,2.9612,2.9603,2.9597,2.9606,2.9607,2.9607,2.9601,2.9583,2.9583,2.9582,2.9582,0,2.9725,2.97,2.9726,2.9705,2.9701,2.9724,2.9706,2.9721,2.9704,2.9722,2.9725,2.9698,2.9709,2.9683,2.969,2.9676,2.9715,2.9701,2.9718,2.9713,2.9749,2.9746,2.9871,2.9885,2.9764,2.9765,2.9766,0,2.9781,2.9801,2.9783,2.9789,2.9784,2.9794,2.9798,2.9766,2.9772,2.9764,2.978,2.9788,2.9792,2.9811,2.9792,2.9798,2.9784,2.9827,2.9784,2.9793,2.9784,2.9783,2.9785,2.9836,2.9837,2.9838,2.9839,0,2.9883,2.987,2.9876,2.9878,2.9883,2.9883,2.9881,2.9889,2.9855,2.9863,2.9873,2.9877,2.9884,2.9892,2.9893,2.9886,2.9858,2.9853,2.9861,2.987,2.9878,2.9874,2.9741,2.985,2.9849,2.9848,2.9848,2.9847,2.9961,2.9977,2.9966,2.9975,2.997,2.9969,2.9982,2.9967,2.9975,2.9978,2.9959,2.9973,2.9966,2.9965,2.9961,2.9972,2.9952,2.9964,2.9967,2.9971,2.9976,2.9878,2.9972,2.9972,2.9972,2.9971,2.9971,0,3.006,3.0052,3.006,3.0058,3.0065,3.0038,3.0034,3.0042,3.0055,3.005,3.0055,3.0067,3.0075,3.0058,3.0064,3.0076,3.0063,3.0078,3.0077,3.0076,2.9994,2.9986,3.0089,3.0089,3.0089,3.0089,3.0089,3.0089,3.0113,3.0138,3.0125,3.0148,3.0139,3.0153,3.0153,3.0152,3.0148,3.0164,3.017,3.0159,3.0149,3.0154,3.016,3.0155,3.0159,3.0179,3.0169,3.0093,3.0081,3.007,3.0063,3.018,3.018,3.025,3.025,3.0251]}]]